Regional Weather Roundup
Issued by NWS Upton, NY

Home | Current Version | Previous Version | Text Only | Print | Product List | Glossary On
Versions: 1 2 3 4 5 6 7 8 9 10 11 12 13 14 15 16 17 18 19 20 21 22 23 24 25 26 27 28 29 30 31 32 33 34 35 36 37 38 39 40 41 42 43 44 45 46 47 48 49 50
000
ASUS41 KOKX 012208
RWROKX

REGIONAL WEATHER ROUNDUP
NATIONAL WEATHER SERVICE NEW YORK NY
600 PM EDT WED APR 01 2015

NOTE: "FAIR" INDICATES FEW OR NO CLOUDS BELOW 12,000 FEET WITH NO
SIGNIFICANT WEATHER AND/OR OBSTRUCTIONS TO VISIBILITY.

NYZ071-072-176-178-NJZ106-104-012300-
NEW YORK CITY METRO AREA


CITY           SKY/WX    TMP DP  RH WIND       PRES   REMARKS
CENTRAL PARK   SUNNY     50  15  24 W9        30.12R
LAGUARDIA APRT SUNNY     51  17  26 NW10      30.09R
KENNEDY INTL   SUNNY     52  17  25 NW12G23   30.11R
NEWARK/LIBERTY MOSUNNY   52  20  28 W16G26    30.11R
BRNX BOT. GARD   N/A    N/A N/A N/A NW6       30.11R
TETERBORO      SUNNY     51  18  27 NW16      30.09R
$$

NYZ177-179-078>081-012300-
LONG ISLAND NEW YORK

CITY           SKY/WX    TMP DP  RH WIND       PRES   REMARKS
FARMINGDALE    SUNNY     50  14  23 NW12G21   30.09R
ISLIP          SUNNY     49  17  28 W12       30.08R
SHIRLEY        SUNNY     49  17  28 W14       30.09R
WESTHAMPTON    SUNNY     48  13  24 NW9       30.10R
MONTAUK POINT    N/A     46  19  34 W8        30.08R
$$

NYZ052-065-067-012300-
HUDSON VALLEY

CITY           SKY/WX    TMP DP  RH WIND       PRES   REMARKS
WHITE PLAINS   SUNNY     49  11  21 W14G21    30.07R
NEWBURGH       SUNNY     48   9  20 N16G23    30.09
MONTGOMERY     SUNNY     49  14  24 W14       30.08R
POUGHKEEPSIE   SUNNY     51   6  16 W9        30.08R
ALBANY         SUNNY     43   6  21 W20G26    30.11R
$$

NJZ001-105-106-008-010-013-015-019>022-104-012300-
NEW JERSEY

CITY           SKY/WX    TMP DP  RH WIND       PRES   REMARKS
NEWARK/LIBERTY MOSUNNY   52  20  28 W16G26    30.11R
TETERBORO      SUNNY     51  18  27 NW16      30.09R
CALDWELL       SUNNY     51  17  26 NW10      30.11R
MORRISTOWN     SUNNY     50  19  29 NW10G16   30.11R
SOMERVILLE     SUNNY     52  19  27 W8G20     30.11R
SUSSEX         SUNNY     48  15  26 NW6       30.12R
ANDOVER          N/A     47  15  27 N10G16    30.11R
TRENTON        SUNNY     51  23  33 NW10G20   30.12R
MILLVILLE      SUNNY     55  24  30 W15G21    30.14R
ATLANTIC CITY  SUNNY     55  23  28 NW14      30.12R
WRIGHTSTOWN    SUNNY     53  23  31 NW13      30.09R
TOMS RIVER     SUNNY     54  23  30 NW8G18    30.13R
BELMAR         SUNNY     52  21  30 NW13G18   30.12R
$$

PAZ047>061-062-071-012300-
EASTERN PENNSYLVANIA

CITY           SKY/WX    TMP DP  RH WIND       PRES   REMARKS
PHILADELPHIA   MOSUNNY   56  16  20 NW12      30.14R
ALLENTOWN      SUNNY     50  26  39 NW13      30.14R
SCRANTON       SUNNY     48  21  34 NW10      30.12S
$$

CTZ002-004>006-009-010-012-RIZ004-006-007-MAZ004-011-015-012300-
SOUTHERN NEW ENGLAND
 IN CT

CITY           SKY/WX    TMP DP  RH WIND       PRES   REMARKS
BRADLEY INTL   MOSUNNY   48   4  16 N15       30.06R
HARTFORD       SUNNY     48   2  15 NW12G21   30.07R
DANBURY        SUNNY     48   5  17 NW14G24   30.08R
WTRBRY/OXFORD  SUNNY     46  10  23 NW9G18    30.06S
BRIDGEPORT     SUNNY     52  14  22 W10G18    30.08R
MERIDEN        SUNNY     50   6  16 NW13      30.07R
NEW HAVEN      SUNNY     49  10  20 W5        30.07R
CHESTER        FAIR      46   3  17 NW6G18    30.06R
GROTON         SUNNY     49   3  15 NW14      30.06R
WILLIMANTIC    SUNNY     47   5  18 NW8G17    30.06R

 IN RI

CITY           SKY/WX    TMP DP  RH WIND       PRES   REMARKS
PROVIDENCE     MOSUNNY   48   3  15 N12G21    30.04R
BLOCK ISLAND   SUNNY     45  18  33 W9        30.05R
WESTERLY       SUNNY     49   6  17 NW10      30.06R

 IN MA

CITY           SKY/WX    TMP DP  RH WIND       PRES   REMARKS
BOSTON         MOSUNNY   46   5  18 NW17G23   30.04R
WORCESTER      SUNNY     42  -2  15 NW13G20   30.02R
WESTFIELD      SUNNY     47   4  17 NW14      30.06R
PROVINCETOWN   SUNNY     39  12  33 NW3       30.05R
NANTUCKET      MOSUNNY   39  20  46 SW12      30.07R WCI  32
$$

ANZ330-335-338-340-345-350-353-355-012300-
COASTAL MARINE OBSERVATIONS


STATION/POSITION TIME  SKY/WX   TEMP    WIND        PRES    VSBY  WAVE
                                AIR SEA DIR/SP/G                  HT/PER
                 (UTC)          (F)     (DEG/KT/KT) (MB)    (MI)  (FT/S)
NY HARB ENTRANCE 2150            44 40  270/  4/  6 1019.2          2/ 8
4S FIRE IS       2103               38                N/A           2/ 9
20S FIRE ISLAND  NOT AVBL
23SW MTP         2150                                 N/A           2/ 8
HUDSON CANYON    NOT AVBL
EXECUTION ROCKS  NOT AVBL
WESTERN LI SOUND NOT AVBL
CENTRAL LI SOUND NOT AVBL
EASTERN LI SOUND NOT AVBL
ROBBINS REEF     2100            49     310/ 15/ 19 1017.6
$$


>>>>>>>>>>>>>>>>>>>>>>>>>>>> KEY <<<<<<<<<<<<<<<<<<<<<<<<<<<
>                                                          <
>     SKY/WX - SKY CONDITION/PRESENT WEATHER               <
>     TMP    - TEMPERATURE IN FAHRENHEIT                   <
>     DP     - DEWPOINT IN FAHRENHEIT                      <
>     RH     - RELATIVE HUMIDITY IN PERCENT                <
>     WIND   - DIRECTION AND SPEED IN MPH                  <
>     PRES   - MEAN SEA LEVEL PRESSURE IN INCHES OF HG     <
>     WCI    - WIND CHILL INDEX                            <
>     VSB    - VISIBILITY IN MILES                         <
>     HX     - HEAT INDEX                                  <
>     TC     - TEMPERATURE IN CELSIUS                      <
>     VRB    - VARIABLE WIND DIRECTION                     <
>                                                          <
>>>>>>>>>>>>>>>>>>>>>>>>>>>> KEY <<<<<<<<<<<<<<<<<<<<<<<<<<<




USA.gov is the U.S. government's official web portal to all federal, state and local government web resources and services.